ECMWFFLT2_925_thetae_057.txt.gz
Theta_e
328 328 327 329 325 321 322 322 316 319 326 322 314 314 315 313 314 317 313 312 317 321 326 331 333 332 333 332 332 340 348 352 352 353 355 354 353 353 354 355 356 357 356 354 353 353 356 358 358 360 361 362 363 362 363 362 361 360 359 360 359 358 357
327 328 328 329 328 326 321 315 318 324 327 323 317 315 316 315 314 315 313 312 314 314 318 327 331 331 331 331 330 332 342 350 351 352 352 352 352 352 352 355 356 357 357 355 353 353 356 357 357 359 361 362 363 363 363 363 362 361 360 359 360 358 357
327 329 327 325 327 330 325 320 324 325 317 314 316 314 315 317 315 314 312 312 312 312 316 323 326 327 329 331 331 329 337 347 349 349 351 351 352 351 352 353 354 355 356 354 354 354 356 358 357 358 361 362 363 364 364 364 362 361 361 360 359 360 359
326 327 324 318 320 327 327 326 327 325 318 315 317 314 314 316 317 317 315 313 314 320 324 325 325 328 330 331 335 330 335 347 349 347 350 351 351 352 352 352 354 355 354 354 353 354 356 357 357 358 361 362 363 364 365 364 364 363 362 361 360 360 360
323 321 323 321 321 324 323 321 319 318 319 320 319 316 314 315 317 318 319 316 318 329 333 328 328 331 330 333 340 337 335 344 349 347 349 352 351 351 352 352 354 353 354 354 353 353 354 356 359 359 361 362 362 364 365 365 365 364 363 362 361 360 359
316 319 327 328 327 327 325 321 318 317 317 316 315 316 314 312 313 316 318 317 324 339 337 332 330 331 332 332 339 342 339 344 349 347 348 351 351 351 351 352 353 354 354 353 352 353 353 356 361 361 360 363 362 364 365 366 365 365 364 364 362 361 360
321 324 329 329 327 329 329 326 325 324 320 314 311 314 316 313 311 314 313 314 329 350 345 337 333 331 333 330 334 340 340 342 350 349 347 350 352 350 350 351 351 353 353 353 354 354 353 357 362 361 361 362 363 363 365 365 366 366 365 365 362 361 362
326 329 328 328 330 329 326 325 327 325 322 320 318 321 323 315 312 314 313 313 327 350 348 340 336 334 332 332 334 337 340 343 350 349 345 348 351 352 350 350 351 352 352 352 356 356 356 359 362 363 362 363 363 363 364 364 366 366 366 365 363 363 362
321 323 326 324 326 327 325 326 327 326 326 325 322 324 325 318 313 314 315 315 325 350 358 346 340 337 332 332 335 336 337 343 348 350 347 348 350 352 351 351 353 353 353 356 358 359 359 359 363 364 362 363 363 363 364 365 366 366 366 366 365 363 363
322 322 322 319 320 324 325 326 326 325 326 324 321 320 317 319 320 317 315 317 326 344 353 344 339 340 335 333 338 342 341 344 348 349 349 347 349 351 351 352 353 355 358 363 365 366 363 362 364 364 363 363 363 362 363 365 367 367 367 367 366 364 364
329 327 330 331 326 321 319 323 324 325 326 325 324 318 316 325 327 319 324 331 327 330 340 341 339 339 337 336 346 354 360 363 361 353 349 351 350 348 350 351 353 359 362 366 369 368 365 363 364 366 364 363 362 363 363 364 367 368 368 368 367 365 364
332 331 333 336 329 322 319 321 322 324 325 325 322 316 321 336 327 318 334 344 328 328 341 346 343 342 341 344 349 355 359 367 367 355 350 352 347 346 352 353 355 360 363 367 371 370 366 364 364 366 365 365 364 363 364 364 366 369 369 369 368 366 365
329 331 332 332 333 329 326 324 323 324 324 322 319 319 328 338 328 326 347 349 334 336 342 343 346 346 346 345 348 351 353 358 360 354 351 350 349 359 364 356 355 360 361 366 370 371 367 365 364 367 366 366 365 365 365 365 366 368 369 369 367 367 366
327 330 332 332 331 330 329 328 326 326 326 322 321 324 330 336 333 340 357 350 338 337 336 337 344 346 344 343 343 347 350 353 356 354 352 352 358 373 373 361 359 364 365 368 371 372 370 366 364 367 367 366 366 366 366 365 366 368 369 369 369 367 367
326 329 332 332 331 330 327 328 330 329 327 324 323 324 328 333 330 335 347 344 339 337 336 339 348 348 343 342 342 343 344 348 353 352 351 355 362 371 373 371 375 380 379 379 377 375 372 366 364 366 368 368 366 366 367 366 366 367 368 370 369 368 369
326 326 329 329 329 329 324 325 330 330 326 323 323 324 325 332 332 330 334 335 340 345 343 341 347 346 342 342 345 346 345 346 346 345 349 353 359 366 371 377 385 387 385 386 382 376 370 366 365 365 366 368 368 367 368 367 366 367 367 369 369 369 369
327 325 327 328 326 326 324 325 329 332 331 329 324 324 329 334 333 331 333 339 350 350 342 337 341 340 340 344 346 348 350 347 345 345 346 349 353 362 372 378 380 379 380 382 381 376 370 366 366 365 366 367 368 367 367 369 368 367 367 367 369 368 369
325 323 325 328 326 325 328 331 332 334 334 332 327 324 326 331 332 337 344 351 355 352 345 342 342 340 341 343 344 350 351 348 345 344 344 349 355 361 367 370 373 375 379 382 377 370 367 367 366 366 365 366 367 367 367 368 368 367 367 367 367 369 369
324 327 333 333 327 328 332 333 335 334 331 333 332 331 333 334 331 335 344 346 350 350 346 344 344 343 342 341 343 347 348 349 352 353 354 356 354 358 369 376 382 384 384 384 378 369 366 367 366 366 366 366 366 367 366 367 367 367 367 367 367 369 369
326 336 341 336 329 332 333 333 335 335 334 337 334 335 341 345 341 338 339 343 346 346 341 340 342 340 336 338 343 345 346 352 359 361 365 364 361 365 375 383 387 384 377 375 373 365 362 362 362 362 363 364 365 366 365 366 366 366 366 365 367 369 368
326 330 333 332 328 330 332 334 336 333 335 338 337 336 341 346 345 344 340 338 340 339 337 339 340 337 338 345 353 356 357 359 361 362 363 363 362 362 365 369 373 373 367 365 364 360 357 358 359 361 362 362 363 364 365 366 366 366 366 365 365 367 369
322 324 328 329 326 327 330 333 335 332 331 333 336 341 344 344 342 345 345 342 344 342 340 338 337 341 350 357 360 360 362 361 360 360 360 358 360 360 359 361 364 367 367 364 361 359 357 358 359 359 362 363 362 362 363 365 366 367 367 366 365 367 369
320 324 331 331 326 328 332 333 333 333 334 331 336 345 345 342 341 346 347 346 347 348 347 345 342 346 356 362 359 355 359 360 359 360 360 358 357 358 360 361 362 366 370 367 364 365 363 363 366 365 363 365 365 365 364 364 365 366 367 366 365 366 369
322 326 330 329 328 330 330 330 332 334 334 332 343 349 346 341 340 345 346 345 346 345 347 349 348 351 357 360 356 351 353 357 357 359 360 359 358 357 360 363 364 366 368 365 366 368 365 366 369 369 369 369 368 368 367 366 364 364 365 366 365 365 366
319 325 326 325 328 330 328 329 332 333 334 341 350 349 347 339 340 345 344 343 344 343 345 347 349 350 351 351 351 350 350 352 355 357 359 358 358 358 360 361 363 364 364 364 365 366 365 367 369 368 368 370 369 368 367 368 367 364 362 365 365 365 365
316 324 329 327 329 329 327 328 329 331 341 349 347 347 343 337 340 344 341 341 343 343 345 346 346 346 344 345 347 348 349 353 356 357 357 357 356 358 358 358 357 362 364 365 365 363 364 368 369 367 366 366 367 367 367 368 369 366 363 363 365 365 366
317 322 327 331 334 331 325 328 331 333 341 344 345 345 341 335 337 340 339 339 341 343 346 346 344 344 344 344 346 347 348 352 355 356 358 357 355 357 357 356 355 360 363 363 362 363 362 364 367 368 367 367 365 366 366 366 368 368 366 364 364 365 366
319 323 327 335 338 331 323 327 330 331 336 339 340 341 337 332 334 337 337 338 338 340 344 344 342 343 344 344 345 346 348 349 352 353 356 356 356 356 357 356 355 357 360 361 362 362 361 362 363 365 368 370 368 369 370 369 367 368 368 365 365 366 366
322 325 329 332 332 325 321 326 328 327 330 333 332 332 330 329 333 334 334 336 337 338 341 343 343 344 344 345 344 345 346 347 349 351 354 354 355 355 356 356 355 355 357 360 361 360 359 360 361 362 365 369 368 368 369 369 370 369 368 368 368 367 366
321 323 325 326 325 323 322 323 324 324 326 328 328 328 329 330 330 330 329 332 335 336 337 340 343 343 344 344 344 344 346 347 349 351 354 354 354 354 356 356 355 356 357 358 360 359 357 357 358 359 361 363 364 364 365 368 370 369 368 370 371 368 368
321 323 324 322 323 324 323 323 323 324 325 326 326 328 330 329 327 327 328 329 331 333 336 338 340 342 343 344 344 345 346 346 349 352 354 355 354 353 354 355 355 356 357 358 358 358 356 355 355 356 357 359 360 362 363 364 366 369 370 371 371 371 370
320 321 322 321 322 324 323 323 324 325 326 326 326 326 327 327 326 326 326 327 327 330 333 337 339 341 343 345 346 345 346 348 351 353 354 354 353 352 352 354 354 354 356 357 357 356 354 354 354 354 357 357 358 361 365 366 366 368 370 370 370 371 371
318 319 321 324 325 324 323 322 323 324 325 325 325 325 326 328 328 327 325 325 326 327 330 335 338 340 343 346 347 346 347 349 352 352 353 351 351 352 353 352 352 353 355 356 355 354 353 353 354 354 355 356 357 359 364 368 370 369 370 371 371 372 371
319 319 321 323 322 320 321 322 322 322 323 323 324 325 326 327 329 327 326 326 327 328 329 332 337 340 342 345 348 348 349 351 351 350 350 349 348 352 353 352 352 353 353 353 353 353 353 352 353 354 354 354 356 357 361 365 369 369 370 370 369 370 371
318 318 319 319 318 318 319 320 322 323 323 322 324 325 325 326 327 326 326 328 330 331 330 330 335 341 343 343 345 347 348 347 346 345 346 348 349 352 352 352 352 353 352 352 352 352 352 352 352 352 352 352 353 355 357 360 364 366 367 365 363 364 366
317 317 317 317 318 318 318 318 321 323 323 322 323 323 323 324 324 323 326 329 330 332 331 328 331 338 342 341 342 345 346 345 342 341 344 347 348 351 352 352 352 352 352 353 352 351 352 350 350 351 352 351 352 353 355 356 360 362 363 361 359 359 361
316 316 316 316 317 317 317 317 319 322 323 323 324 323 323 325 325 325 327 329 328 329 330 328 329 335 340 340 340 342 343 342 340 341 344 346 347 349 351 352 352 352 352 352 352 352 351 350 349 350 350 350 352 354 354 355 356 357 358 357 356 355 356

ECMWFFLT2_925_thetae_063.txt.gz
Theta_e
324 328 328 327 326 323 325 325 321 323 326 322 318 320 323 317 315 318 317 318 323 323 327 333 328 328 335 340 345 346 345 347 347 349 350 349 350 350 351 352 352 352 350 348 348 347 348 348 348 350 350 351 352 352 352 353 352 353 353 354 354 355 355
321 323 328 327 326 326 324 320 321 324 325 324 321 317 318 317 316 321 320 315 315 316 324 337 332 327 332 338 341 344 345 346 347 349 349 349 350 350 350 352 352 352 351 349 347 347 347 348 348 349 350 351 352 352 352 353 353 353 353 354 354 354 355
323 321 323 323 325 326 324 323 325 325 320 318 319 317 317 318 317 319 320 320 317 316 323 333 328 325 332 338 342 344 345 346 347 348 349 349 349 350 351 352 353 352 351 350 348 347 348 348 349 349 350 350 351 351 352 352 353 353 353 353 354 354 354
322 322 320 317 318 323 325 324 325 327 323 317 318 319 317 318 321 320 318 318 318 321 328 330 328 329 331 336 344 346 344 345 346 346 348 349 349 350 350 351 352 352 351 350 348 348 348 349 348 349 350 350 351 351 352 352 352 353 353 353 354 354 354
321 323 321 317 318 321 321 319 319 320 321 320 319 319 318 321 325 325 320 315 318 331 339 331 330 334 328 333 346 348 345 346 345 346 348 348 349 350 350 350 351 351 351 350 349 348 348 348 349 350 350 350 351 351 352 352 352 352 352 353 353 354 354
324 325 323 322 323 323 320 319 319 319 318 318 317 317 320 320 322 326 322 313 318 334 337 328 331 336 329 331 342 346 346 346 345 346 348 349 349 349 350 350 350 350 351 350 349 349 349 349 349 350 351 351 350 351 351 352 352 352 353 353 353 353 353
321 321 322 322 322 324 325 322 321 323 321 317 314 315 318 316 317 325 322 313 319 337 341 331 328 330 327 327 337 344 345 345 346 346 347 348 349 349 350 350 350 350 350 350 349 349 349 349 350 350 351 352 351 351 351 352 352 352 352 353 353 354 353
321 320 322 322 323 325 324 323 322 322 322 319 318 323 323 317 314 317 317 313 319 341 356 343 331 330 327 325 332 340 344 344 346 347 346 349 350 349 350 349 350 351 350 350 351 350 350 350 351 351 352 353 352 352 352 352 353 352 352 353 353 354 353
326 320 321 326 330 326 321 323 325 321 323 323 324 326 324 317 315 315 315 313 317 339 362 348 337 337 333 328 327 332 340 344 346 347 347 349 350 350 351 351 351 351 351 352 352 351 349 349 351 352 352 353 353 354 353 353 354 353 353 353 353 354 354
328 323 324 327 328 322 318 322 323 322 324 320 321 322 317 317 320 317 314 314 317 331 345 336 332 338 338 333 327 326 334 343 347 348 348 350 350 351 351 351 352 353 352 354 354 352 349 349 351 352 352 353 354 354 354 354 354 355 353 354 354 353 354
321 321 322 320 318 317 316 319 319 320 322 321 322 322 315 320 325 317 315 319 318 322 328 326 328 334 338 336 328 326 334 342 348 349 349 351 351 350 351 351 352 354 354 354 354 352 350 349 350 352 352 354 354 355 356 356 355 356 355 355 355 354 354
316 316 317 315 315 316 315 316 317 319 323 324 320 317 318 327 322 315 324 331 319 317 327 327 326 334 343 341 330 328 335 342 347 350 350 352 351 350 352 352 353 355 354 354 355 353 350 350 350 351 353 354 354 355 356 356 356 357 357 357 356 356 356
315 314 314 314 314 315 315 316 317 320 324 325 320 317 325 330 318 315 333 342 325 320 327 325 325 335 342 339 330 328 336 345 348 349 350 351 350 350 352 352 354 354 354 355 355 353 351 350 350 351 352 353 354 355 357 357 357 357 358 358 357 357 356
314 313 313 314 314 316 319 321 322 323 326 328 324 322 327 330 324 323 338 342 332 325 327 327 331 340 345 347 338 333 338 345 347 349 350 349 349 350 351 351 352 352 353 354 354 353 353 350 349 351 351 352 354 355 356 357 358 358 359 359 358 358 358
314 314 314 314 314 318 323 327 329 331 333 329 322 323 329 328 326 329 336 335 333 335 341 343 345 346 349 351 346 339 340 345 346 348 348 348 350 349 349 351 351 351 353 353 354 354 354 350 350 351 351 351 353 354 356 357 358 359 360 360 359 359 358
315 314 314 314 314 319 327 330 331 334 337 331 326 335 342 336 330 332 330 326 332 346 350 345 348 355 359 363 359 347 342 344 346 347 348 348 350 348 349 350 350 351 352 353 354 354 352 349 350 350 351 353 353 353 355 356 358 359 360 361 360 359 360
317 314 312 315 320 328 335 334 330 332 338 342 346 349 348 345 344 341 333 330 341 351 346 345 362 372 373 376 374 362 350 348 348 347 347 349 348 348 349 350 350 350 351 352 352 352 350 349 349 350 351 352 352 354 354 356 357 358 360 361 361 361 361
317 313 313 324 334 338 338 333 328 329 334 343 350 349 345 344 346 346 345 344 347 349 349 359 373 372 366 366 365 362 360 357 351 347 348 347 347 347 348 349 349 349 350 351 350 349 350 350 349 350 351 353 354 353 354 355 357 358 360 361 361 361 361
317 316 321 337 346 339 336 331 326 327 329 333 341 347 344 342 343 345 350 351 354 362 365 363 364 363 362 361 361 362 365 367 367 368 370 363 357 353 350 349 350 350 351 352 350 347 349 350 350 350 352 353 355 354 355 356 357 358 360 360 361 362 362
318 319 323 335 340 337 335 331 326 327 328 328 335 346 347 342 340 343 348 352 357 366 367 362 361 361 360 361 361 360 363 367 371 375 378 378 375 373 370 369 368 362 355 352 350 348 350 350 351 352 352 355 356 356 356 357 358 358 359 361 361 362 362
319 317 316 324 334 338 337 332 325 324 327 327 331 342 347 342 339 340 344 348 352 358 362 364 364 361 362 366 362 357 359 363 364 366 367 367 370 373 373 373 372 363 354 353 353 352 352 353 353 353 355 357 358 358 358 358 359 359 360 361 362 362 362
318 316 315 324 338 342 335 329 323 322 326 325 326 336 347 343 336 337 342 346 349 353 358 362 363 363 367 369 363 356 356 358 359 361 362 361 363 364 364 364 363 360 360 361 360 359 360 359 357 355 357 358 360 360 360 360 359 360 360 361 362 362 363
315 314 316 324 336 338 330 326 324 324 326 325 327 340 350 343 334 335 339 344 347 350 355 361 364 365 370 370 361 355 355 355 356 358 359 360 360 360 360 362 361 361 363 362 362 363 364 364 363 361 359 360 362 361 361 361 361 361 360 361 361 363 364
315 316 317 324 333 333 326 325 326 325 326 328 335 349 351 340 333 333 336 341 345 347 352 356 359 362 367 365 356 352 353 354 353 354 356 357 358 358 357 358 358 359 361 361 361 362 361 363 365 362 362 363 362 363 363 362 362 362 361 362 362 362 363
316 317 316 322 331 330 325 326 327 326 330 337 344 349 344 337 333 331 332 338 341 343 347 351 353 355 355 353 350 349 350 351 352 352 352 353 355 357 357 357 357 357 357 357 357 357 359 363 365 363 363 364 363 363 363 362 362 362 363 363 363 362 362
316 316 315 322 331 328 324 328 329 329 334 342 343 339 336 334 332 328 329 333 336 340 344 346 348 348 346 346 348 347 347 349 350 351 351 352 353 355 356 356 355 354 354 354 354 354 357 361 364 364 364 364 364 364 362 362 364 364 363 363 364 363 363
321 321 322 327 331 328 326 330 332 331 333 336 335 333 332 331 328 326 327 330 333 338 342 342 342 343 343 344 346 345 346 347 348 348 350 352 353 353 354 355 354 353 352 351 351 352 354 357 360 363 363 362 362 362 361 362 364 366 365 365 364 364 364
324 327 326 324 325 326 328 331 333 331 330 331 331 332 331 328 326 325 327 328 329 334 339 340 340 340 341 342 343 343 344 344 345 347 348 349 351 352 352 354 353 351 350 350 349 351 353 354 356 358 360 360 359 358 360 362 364 366 367 366 365 365 364
321 326 325 321 322 327 327 328 329 329 329 329 328 328 328 328 326 325 326 326 326 329 334 338 339 339 340 340 340 341 341 341 343 345 346 346 348 349 350 351 352 350 350 349 348 350 352 353 353 355 356 357 356 356 359 363 365 366 367 368 368 367 364
318 322 322 319 321 324 325 325 326 326 326 327 327 326 325 324 324 324 325 325 324 324 329 334 337 338 338 339 340 339 339 339 340 342 344 344 344 346 348 350 351 350 349 349 349 349 350 352 352 353 354 355 354 355 357 362 365 365 367 368 369 368 366
316 320 322 319 319 321 322 323 323 321 322 323 325 326 325 323 323 323 324 325 324 322 324 329 335 337 337 338 339 338 338 338 339 340 342 343 342 343 345 348 349 350 349 348 348 348 349 351 352 352 352 353 353 354 356 359 364 366 367 368 369 369 366
315 317 318 316 316 319 321 322 321 320 320 320 321 323 324 324 323 324 324 324 324 322 321 324 330 335 337 337 339 339 338 337 338 339 340 341 340 340 342 345 348 349 348 348 348 348 348 349 350 350 351 351 351 352 354 356 360 365 368 368 369 370 367
314 314 315 315 316 318 320 319 319 319 319 318 318 319 321 322 324 325 323 321 321 321 322 322 325 330 335 338 338 339 338 337 337 338 338 338 337 339 341 343 345 348 349 349 349 348 348 349 349 350 350 349 350 350 351 352 357 363 367 367 369 369 368
314 314 314 313 314 315 315 314 316 317 317 317 316 317 318 320 323 324 322 321 320 320 321 322 323 325 331 337 338 338 339 338 337 337 337 336 335 337 339 341 343 346 349 350 349 349 349 349 349 350 349 349 350 349 349 351 355 361 365 366 368 369 369
312 312 311 310 311 311 311 311 313 314 315 316 315 315 316 319 322 324 322 322 323 322 321 322 323 323 327 334 337 338 338 336 334 335 336 335 336 337 339 340 341 343 347 350 350 349 349 349 348 349 349 349 349 350 352 352 354 358 362 364 365 367 369
310 310 309 309 310 310 310 310 311 310 312 315 315 314 316 319 323 323 321 321 324 324 323 323 323 322 323 328 334 340 339 333 332 335 337 336 337 338 340 341 341 342 345 348 350 350 349 349 348 348 348 348 348 349 352 353 354 356 360 362 363 365 367
309 309 309 309 310 309 309 310 310 309 310 312 314 314 316 320 324 323 321 321 324 324 324 324 323 321 321 323 329 336 336 332 332 337 337 335 337 339 340 341 342 344 345 348 350 351 349 348 349 348 347 348 348 348 350 353 354 356 358 360 361 362 363

ECMWFFLT2_925_thetae_069.txt.gz
Theta_e
318 320 320 322 322 321 322 323 320 322 325 322 317 316 318 317 315 316 315 315 318 321 324 326 326 327 328 329 330 331 335 341 345 346 347 349 350 350 350 350 351 351 352 353 353 353 353 354 354 355 356 357 357 356 357 356 356 356 355 355 355 354 355
319 318 319 320 321 323 322 319 320 324 326 324 319 317 319 318 316 317 314 312 313 314 318 326 328 327 327 329 328 328 332 339 343 344 346 348 349 349 350 350 351 351 351 352 352 352 353 353 354 355 356 357 357 357 356 356 356 357 356 356 356 355 355
319 318 320 320 322 323 323 322 324 324 321 320 320 319 320 318 318 318 315 313 312 311 316 323 327 328 329 329 330 329 330 336 341 341 345 348 348 349 350 350 351 350 350 352 352 352 352 353 353 355 355 356 356 356 356 356 356 356 356 356 356 356 356
318 318 320 320 321 323 323 324 325 325 321 320 320 320 319 318 319 318 317 315 313 315 319 322 325 330 331 331 333 334 331 334 340 341 344 347 348 349 350 349 350 350 349 351 352 351 352 352 353 354 354 355 355 356 356 356 356 356 356 356 356 357 357
317 318 320 319 320 322 322 321 322 322 322 321 322 321 319 318 319 319 319 316 314 319 326 325 325 330 332 332 335 337 335 334 338 341 344 346 348 349 349 349 349 349 349 350 351 351 351 352 353 353 353 354 354 355 356 356 356 357 356 356 357 357 357
317 319 319 319 318 318 318 319 320 321 321 320 320 321 319 317 318 318 319 317 315 321 330 328 324 327 330 332 334 335 335 334 336 341 343 346 348 347 348 348 348 348 349 350 350 351 351 351 352 352 352 353 354 354 355 355 356 356 356 356 357 357 357
318 318 317 317 316 316 316 318 320 321 322 319 318 320 320 318 317 318 317 316 318 325 333 330 326 328 329 330 333 333 333 334 336 339 341 345 349 348 347 346 346 348 348 350 351 351 351 351 352 352 352 353 354 354 354 355 356 356 356 356 356 357 357
316 316 317 317 316 317 318 318 318 319 319 318 318 320 320 319 318 317 318 318 319 325 337 336 330 329 327 325 328 329 331 334 335 337 340 345 349 349 347 346 347 348 348 350 352 351 352 352 352 352 352 353 353 354 354 354 355 355 355 356 356 357 357
319 319 320 319 319 318 318 318 317 317 318 318 319 321 321 319 318 317 319 318 318 327 342 339 330 329 328 325 325 324 327 331 333 335 339 344 350 351 349 348 349 348 350 352 353 354 354 352 352 352 352 353 353 354 354 354 354 355 355 355 356 356 356
322 323 322 319 318 318 316 316 317 316 317 317 319 322 320 318 319 318 318 317 320 329 339 335 330 330 330 330 329 326 326 329 331 336 338 342 348 352 351 350 350 350 352 354 356 356 354 351 352 353 352 353 353 353 354 354 354 355 355 355 356 356 356
318 320 318 314 314 316 316 317 316 316 317 316 319 322 321 321 320 318 319 321 319 323 331 332 330 330 331 332 332 331 332 332 331 337 343 343 345 349 351 351 352 355 357 357 357 357 354 351 351 352 352 352 352 354 354 354 354 355 355 355 355 356 356
314 315 314 312 313 315 315 316 316 316 316 316 319 321 322 324 322 317 323 328 321 320 328 331 330 333 335 335 335 334 337 337 333 337 343 342 342 346 348 350 354 357 358 358 357 355 353 352 351 352 352 352 353 354 354 353 354 355 355 355 355 356 356
312 312 312 312 313 314 314 315 315 315 317 317 319 321 321 324 325 322 328 334 329 325 326 327 329 334 335 333 333 332 331 330 330 332 335 334 336 342 346 350 354 356 357 358 358 356 354 353 352 352 352 352 353 354 354 354 354 355 355 356 356 356 356
312 312 312 313 313 314 315 315 315 316 317 317 318 321 323 324 326 326 329 334 332 327 331 335 335 337 338 335 334 336 338 338 337 335 332 329 329 335 342 348 352 354 355 357 358 358 356 354 353 352 352 353 353 353 353 354 354 355 355 356 356 356 356
314 313 313 313 313 314 315 315 316 316 316 319 324 330 333 332 331 330 330 331 331 332 341 345 342 343 349 349 347 352 356 356 354 350 343 334 329 330 336 344 349 352 354 356 358 358 357 355 354 353 353 352 352 352 353 354 354 355 355 356 356 356 356
315 314 314 314 314 315 316 317 317 317 320 327 334 339 341 339 337 336 329 327 333 341 347 349 348 352 358 359 358 359 359 357 359 359 356 349 338 332 332 338 347 351 351 354 357 355 354 355 354 353 354 353 352 352 353 353 354 354 355 355 356 356 357
316 314 314 315 316 318 321 321 320 321 327 334 337 340 342 340 340 339 334 332 339 344 347 352 356 358 359 359 358 359 358 358 358 359 359 356 347 338 334 336 342 348 349 351 354 354 353 354 353 353 353 352 353 353 353 353 353 353 354 355 356 356 356
316 315 315 317 320 322 325 325 324 326 331 335 337 339 339 337 337 337 337 338 340 341 344 352 358 359 359 359 357 357 357 358 357 357 359 358 351 341 337 336 338 345 350 351 353 355 355 353 353 353 352 353 353 354 354 354 354 355 356 355 356 357 356
315 315 316 321 325 325 325 326 326 327 330 332 336 338 335 332 332 333 335 337 337 337 340 346 353 357 357 357 356 355 354 355 356 356 357 358 354 345 340 341 343 348 352 353 353 355 354 353 353 354 353 353 354 354 355 354 354 355 356 356 356 357 357
315 316 319 324 325 322 324 325 325 327 329 331 336 340 335 329 329 330 331 332 333 334 337 341 349 354 353 353 355 354 353 353 355 355 356 358 357 352 345 344 348 352 352 351 352 354 353 352 353 353 353 353 353 354 355 355 356 356 356 357 357 357 357
315 316 319 321 321 324 327 326 324 325 327 329 334 340 337 328 326 327 328 329 331 332 333 339 348 353 353 354 356 353 351 351 353 355 356 355 357 355 348 345 351 353 352 352 354 354 353 352 352 353 353 353 354 356 356 356 357 357 357 358 358 357 357
315 316 318 319 322 328 330 326 321 322 324 325 327 336 339 329 322 323 324 326 330 331 331 338 349 356 357 360 358 351 349 350 351 354 354 354 356 355 349 346 351 353 353 353 354 353 353 353 353 354 354 355 356 358 357 357 358 358 358 358 358 358 358
315 315 318 320 323 327 327 324 322 323 325 324 325 337 342 329 320 320 322 325 329 329 330 340 351 357 360 361 357 350 348 349 350 351 353 354 355 356 353 349 349 352 355 354 353 354 354 353 354 354 355 356 357 358 359 358 358 358 358 359 359 359 359
315 315 317 318 320 323 323 323 324 324 324 325 331 343 342 327 320 320 321 324 327 327 330 339 348 353 355 355 352 348 347 347 347 349 351 352 353 356 356 354 352 354 356 356 354 354 355 354 354 353 354 355 357 358 359 358 358 359 359 359 360 360 359
314 316 318 318 319 322 323 324 323 323 325 331 339 342 333 324 321 321 320 324 326 326 328 335 341 344 344 344 345 344 342 343 344 345 348 351 353 355 357 359 358 355 355 355 354 354 354 354 353 354 355 356 358 360 360 359 359 359 360 361 361 361 361
314 316 317 317 319 322 323 323 323 323 329 337 338 330 324 321 322 321 321 323 324 324 325 329 333 337 337 337 339 339 338 340 342 342 344 349 352 354 356 358 359 359 358 358 356 355 354 353 354 355 356 357 359 360 359 360 360 360 360 361 361 362 362
315 316 316 318 322 322 321 323 323 323 326 329 326 322 321 321 320 320 321 322 322 322 323 324 327 330 331 333 335 336 336 338 339 340 342 344 347 351 354 355 357 360 361 361 360 357 354 353 354 355 355 359 360 360 360 360 360 359 359 359 360 362 363
318 318 318 320 322 322 320 321 321 319 318 319 318 319 320 319 318 320 321 321 321 321 321 323 324 325 326 328 331 334 335 336 337 339 340 341 343 347 351 354 355 357 360 361 361 360 357 357 357 356 357 360 361 361 361 359 357 357 357 357 360 361 363
317 317 318 317 318 319 318 318 318 317 316 315 315 317 317 317 318 319 318 319 320 320 319 321 323 322 321 322 326 331 334 334 335 337 339 340 342 344 348 352 354 355 358 359 359 361 361 361 361 360 361 363 364 364 361 357 356 356 356 356 359 361 362
314 315 315 314 314 316 317 316 315 316 316 315 314 315 316 316 316 317 317 317 318 318 318 319 321 320 318 318 321 327 332 333 333 336 337 339 341 344 346 349 352 353 355 357 357 358 360 360 361 363 363 364 364 363 360 356 356 356 356 357 359 361 362
314 316 315 313 312 314 316 316 316 315 315 315 315 314 315 315 315 316 316 316 317 317 317 317 319 318 317 317 318 323 329 333 332 334 336 337 340 343 345 347 350 352 353 355 356 356 357 357 359 361 362 363 363 361 360 360 358 357 357 358 359 361 363
314 315 314 312 312 314 317 317 317 316 315 314 314 314 314 314 315 315 315 315 316 317 316 317 317 317 317 317 316 319 326 332 333 333 334 336 338 341 343 346 349 351 352 354 354 354 355 356 356 358 359 361 362 364 364 364 363 360 359 359 359 361 362
313 313 313 312 313 315 316 316 316 316 314 313 313 313 313 313 314 314 315 315 315 315 316 317 316 316 317 317 316 317 323 329 332 332 333 335 337 339 341 345 348 350 352 353 353 352 353 354 354 355 356 357 360 364 366 367 367 367 366 364 364 363 363
314 313 312 312 313 314 314 313 314 314 313 312 313 313 313 313 314 314 314 315 314 315 317 317 316 316 317 317 317 317 320 326 331 332 332 334 337 337 339 343 347 349 351 352 352 352 351 352 352 353 353 354 356 359 363 366 368 368 368 368 368 366 366
313 312 311 311 312 312 312 311 312 312 312 312 312 313 313 313 313 314 314 315 315 316 318 318 317 316 316 317 317 316 318 324 330 331 331 333 335 336 337 340 343 347 349 350 350 350 350 351 351 351 352 352 353 355 358 361 364 366 368 370 370 369 368
311 311 310 310 311 311 311 311 311 311 312 312 313 313 314 314 313 313 314 314 315 316 317 319 318 317 316 317 317 316 318 323 329 330 330 332 334 334 335 337 340 342 345 346 348 348 348 349 350 350 350 350 351 353 355 356 360 362 365 368 370 369 369
310 310 309 309 309 310 310 310 311 312 313 313 313 313 314 315 315 314 314 314 315 317 318 318 317 318 318 318 317 318 319 323 327 328 329 331 332 332 333 334 337 338 339 342 344 345 346 347 348 348 348 348 350 353 353 355 358 359 362 365 367 367 367

ECMWFFLT2_925_thetae_072.txt.gz
Theta_e
323 324 323 324 322 319 322 321 316 318 322 320 314 313 314 313 314 314 312 313 318 321 325 328 331 331 331 332 332 332 333 335 337 337 339 345 348 351 354 355 356 356 357 360 360 360 360 361 360 361 360 361 361 361 362 363 364 363 362 361 359 358 358
322 323 323 324 324 323 321 318 318 322 324 322 317 314 314 315 314 314 312 312 314 314 318 325 328 328 330 330 331 332 333 334 336 335 338 343 346 349 352 354 355 355 356 359 359 359 359 359 360 360 361 362 361 361 362 363 363 364 362 361 360 359 359
321 322 323 322 323 324 322 322 324 322 318 317 317 316 315 315 314 314 311 311 311 311 315 322 326 325 326 327 329 332 331 333 335 334 337 343 343 346 351 353 354 354 355 358 359 358 359 359 360 361 361 361 362 362 362 363 363 363 362 361 361 360 360
322 322 321 318 319 323 323 324 325 324 320 317 317 317 317 315 315 314 313 311 311 314 319 323 326 328 326 327 328 330 329 332 333 335 339 342 343 345 349 352 355 355 355 357 359 358 358 359 360 360 361 361 361 362 362 362 362 363 363 362 361 362 361
319 319 320 320 320 321 321 320 320 321 321 320 319 319 316 315 315 315 316 313 312 319 326 325 327 328 327 328 329 330 331 331 331 335 338 341 343 346 349 352 354 353 353 356 358 358 357 357 360 359 360 360 360 361 362 362 362 363 362 362 361 362 361
316 318 321 322 322 322 322 320 319 320 319 318 318 318 316 314 314 314 316 314 313 322 329 326 326 327 327 328 330 329 330 330 331 335 336 339 344 346 349 350 352 352 354 356 357 358 357 357 359 359 359 359 360 360 361 361 361 362 361 362 362 362 362
317 319 322 321 321 321 322 322 323 324 322 318 315 316 316 315 315 315 314 314 317 325 330 328 328 327 326 326 327 327 329 329 332 332 333 338 344 348 349 347 349 351 353 355 356 357 357 356 357 358 358 359 359 360 360 360 360 361 360 361 362 362 363
319 320 320 321 321 321 321 322 324 325 324 322 320 320 319 318 315 315 316 315 318 327 330 328 327 328 327 327 328 328 329 328 330 332 332 336 343 348 349 347 349 352 353 355 357 357 358 357 358 358 358 359 360 360 360 359 360 360 360 361 362 363 363
318 317 318 320 321 320 320 322 325 324 324 325 324 322 323 321 318 316 317 314 317 327 332 330 329 327 326 328 328 328 330 330 330 332 335 342 347 352 352 350 350 350 353 357 358 359 360 358 357 359 358 358 359 358 359 359 359 360 360 360 361 362 363
318 317 318 318 319 320 321 322 324 324 324 324 323 321 320 320 320 319 317 315 319 329 333 331 330 329 327 327 328 328 329 330 329 331 335 343 349 355 355 352 352 353 355 359 359 360 361 358 357 358 358 359 359 358 358 359 360 360 360 360 361 363 363
319 320 321 318 317 318 318 320 321 322 323 323 323 321 318 320 320 319 320 321 320 326 333 333 331 329 328 327 328 330 330 331 331 334 338 341 344 350 352 352 353 355 358 359 360 360 359 358 357 358 358 358 357 358 358 358 359 359 360 360 361 362 363
318 319 318 316 315 316 316 318 319 321 322 322 322 320 321 325 322 318 323 327 322 323 332 333 331 332 332 330 331 333 333 333 333 335 339 338 339 344 348 351 354 356 358 360 360 360 359 357 356 357 358 357 357 358 358 358 359 360 360 361 361 363 363
314 314 314 314 314 315 315 316 317 319 320 321 321 321 324 327 324 321 328 331 326 328 331 330 333 337 335 335 336 334 332 336 339 340 340 336 334 340 346 351 356 356 359 361 362 361 360 358 357 357 358 358 358 358 358 358 359 359 360 360 361 363 363
313 312 313 313 313 314 315 315 317 318 319 320 321 323 324 325 325 326 329 331 330 331 332 335 338 338 335 335 336 336 338 344 345 346 344 337 335 337 340 347 355 357 358 361 363 363 362 359 357 357 358 358 357 358 358 358 358 359 360 361 361 362 363
314 313 314 314 313 315 315 314 316 317 319 320 320 321 323 323 325 328 330 329 328 328 336 342 343 338 336 336 337 343 348 350 352 351 348 346 347 348 347 347 350 353 358 360 363 364 362 360 357 357 357 358 358 358 359 358 358 359 359 361 362 362 363
313 313 314 314 314 315 315 314 316 317 318 320 320 320 324 325 326 330 329 325 328 333 341 345 344 339 337 337 341 349 353 354 356 356 354 356 357 356 357 357 354 351 351 357 362 362 360 358 357 356 357 358 359 357 359 358 358 359 360 361 363 363 364
311 312 313 314 315 316 316 316 317 317 319 320 319 325 335 336 333 332 329 328 335 342 342 343 345 345 346 347 348 353 357 357 357 356 356 357 358 358 360 363 361 356 349 351 357 360 360 358 357 356 357 357 358 358 358 359 359 359 359 361 363 363 364
312 312 313 316 317 317 319 321 320 320 320 320 321 330 339 340 337 334 334 337 340 341 339 341 344 346 349 351 352 353 355 357 357 356 356 357 358 359 360 360 362 360 352 347 352 360 360 357 355 355 356 358 358 358 359 359 358 359 360 362 364 364 364
311 311 314 318 319 319 321 325 326 324 321 320 327 335 337 336 335 336 337 338 337 336 337 339 341 343 345 348 351 351 352 354 355 355 356 356 357 358 360 361 363 362 356 346 347 356 359 357 355 357 356 357 358 359 360 360 359 360 361 362 364 364 364
311 311 314 318 320 320 324 327 327 328 329 329 334 336 334 332 333 334 334 335 334 333 335 337 339 342 344 346 350 350 351 352 352 352 353 355 356 357 358 359 361 363 360 348 343 350 358 356 354 356 356 357 357 358 359 360 359 361 362 363 365 365 364
311 312 314 317 319 320 324 328 328 329 332 332 334 338 335 330 329 330 332 333 332 331 333 335 337 342 346 349 351 350 349 349 348 349 351 352 353 355 356 358 362 363 358 350 345 349 355 355 353 355 357 357 357 358 360 360 360 362 363 364 365 365 364
311 312 314 318 319 320 324 328 327 327 329 329 331 337 336 329 326 327 329 330 329 328 329 332 337 344 350 353 352 347 344 343 344 346 348 350 352 354 356 360 361 357 353 351 349 351 356 355 354 355 356 356 356 360 361 360 362 363 363 363 364 364 365
311 312 315 317 319 323 328 328 325 325 328 328 329 336 337 329 325 325 326 326 326 325 325 330 338 349 354 354 349 341 338 338 341 343 347 350 352 355 358 360 360 355 352 351 350 353 357 356 355 357 357 357 358 361 361 361 361 362 362 363 364 364 363
311 313 315 316 318 324 327 325 324 324 325 328 333 340 336 327 323 323 324 324 324 322 324 328 335 341 346 345 338 332 332 336 339 343 348 350 352 355 358 360 360 356 353 354 354 355 356 355 356 358 357 357 359 362 362 361 360 361 361 361 363 364 363
311 312 314 315 318 324 325 323 323 324 326 332 338 337 331 325 322 322 322 322 322 321 322 326 328 329 329 329 327 326 328 334 338 343 348 351 352 355 357 358 360 359 355 356 357 355 355 356 358 359 357 358 361 361 361 361 360 360 360 361 362 362 363
310 312 314 315 318 322 322 322 323 324 329 337 335 328 324 322 320 320 320 320 320 320 320 322 324 323 322 321 323 323 327 334 339 341 345 349 351 354 356 357 360 360 357 356 356 355 357 359 358 359 358 360 363 363 362 362 362 360 360 362 362 363 363
311 312 313 316 320 321 319 321 323 324 327 329 324 322 322 321 319 320 319 318 318 319 320 319 320 320 319 319 321 322 326 333 338 338 341 346 348 351 355 356 358 361 360 358 356 355 359 359 358 359 360 362 364 364 363 363 362 360 361 363 363 364 364
312 314 316 318 319 319 318 320 322 321 320 320 319 320 321 319 318 319 319 317 317 318 319 319 318 318 318 318 319 320 324 331 336 337 339 343 345 349 354 356 358 359 361 361 358 356 358 358 358 359 360 363 365 365 365 364 362 361 363 364 365 366 365
315 316 317 317 316 315 316 317 318 317 316 317 317 318 318 317 317 318 318 318 318 317 318 319 318 317 316 317 319 319 322 329 335 336 337 341 343 346 352 356 358 359 360 362 362 360 358 357 358 359 361 364 366 366 366 365 362 362 365 367 367 368 366
315 315 315 315 314 314 315 315 316 316 316 316 316 316 316 316 316 317 318 318 318 318 318 319 320 319 317 317 319 319 320 326 333 335 336 339 341 343 348 353 357 359 359 360 363 363 363 361 360 360 361 365 366 367 366 366 365 366 369 370 369 368 368
313 315 316 315 314 314 315 315 315 316 316 316 316 316 316 315 315 316 317 317 318 318 317 318 320 320 317 317 319 320 320 324 331 334 335 337 340 342 345 350 354 356 359 360 362 363 363 363 363 363 363 364 365 367 367 367 366 367 369 370 369 368 369
313 315 315 314 313 314 316 317 317 316 316 316 315 315 315 315 316 316 316 316 317 317 317 318 319 319 318 318 319 320 321 324 330 333 334 336 339 340 343 347 351 353 355 358 361 362 362 363 364 365 366 366 366 368 367 364 364 367 368 369 368 369 368
313 315 314 313 314 316 318 317 316 316 315 315 315 314 314 315 316 316 316 316 317 317 316 317 318 320 319 319 319 320 322 325 328 331 333 336 337 338 341 345 348 351 352 354 356 358 360 361 362 364 365 366 367 367 367 366 366 368 368 367 367 368 368
314 315 313 312 313 316 316 315 315 315 314 314 314 315 315 315 315 315 316 316 317 317 317 317 318 319 319 318 318 319 322 325 328 330 333 336 337 337 339 341 343 347 350 351 353 354 356 358 360 361 363 365 366 367 368 369 369 369 369 368 367 368 368
313 312 311 311 312 313 313 313 313 313 313 313 314 315 315 316 315 315 316 317 317 317 317 318 319 318 318 318 318 319 321 323 327 329 332 335 337 336 336 338 340 343 345 348 350 351 353 354 357 357 359 362 363 366 368 370 370 371 370 368 368 368 369
311 311 310 310 310 311 312 312 312 313 314 315 315 315 316 317 316 316 316 316 316 317 317 318 319 319 318 318 318 319 320 322 325 328 329 332 335 335 335 337 338 339 341 345 347 349 351 352 354 355 356 358 359 363 366 368 371 372 371 371 371 370 370
310 310 309 309 310 311 311 312 313 313 315 316 316 316 317 317 318 318 317 317 317 317 317 318 319 319 319 318 317 319 320 322 324 326 327 329 332 333 335 337 338 338 339 341 343 345 348 350 352 353 353 354 356 358 361 365 368 370 371 371 371 371 371

ECMWFFLT2_925_thetae_075.txt.gz
Theta_e
323 325 324 325 323 319 322 322 317 319 324 321 313 312 314 312 311 312 311 311 316 320 325 329 332 334 335 335 336 337 338 341 344 348 348 347 348 350 352 353 356 360 362 363 364 362 362 363 362 361 362 362 364 365 367 368 368 368 367 367 366 363 363
322 323 324 325 324 323 321 317 319 324 325 323 317 313 314 314 313 313 311 310 313 313 316 326 332 333 334 335 336 336 338 340 342 344 347 348 349 351 352 354 358 360 360 363 364 363 363 363 362 363 362 364 365 366 368 369 369 369 368 368 365 364 363
323 324 323 321 324 325 322 321 324 324 317 316 316 313 313 314 314 314 312 311 312 310 314 322 327 331 333 335 335 336 336 339 339 339 341 345 347 348 350 352 356 357 360 363 364 363 363 363 364 363 364 365 365 366 368 369 369 368 368 367 364 364 363
322 322 320 316 318 323 323 323 325 324 319 316 315 315 314 314 314 313 312 311 311 315 321 326 327 331 332 333 334 335 336 336 336 337 337 340 343 346 351 350 351 352 356 362 363 363 363 363 365 365 364 365 365 366 367 368 369 369 369 367 365 364 363
318 317 320 319 318 321 321 318 318 320 321 320 319 317 314 314 314 313 314 313 311 319 330 331 330 332 331 331 333 333 334 334 335 335 335 338 339 343 349 351 349 350 354 361 362 363 362 362 364 364 364 365 364 365 366 368 368 369 369 367 365 364 362
314 315 319 323 322 322 322 319 318 319 320 318 316 316 315 313 313 313 315 313 313 322 330 329 329 331 329 331 331 330 332 331 332 334 336 338 340 341 346 349 350 349 351 357 361 361 360 360 363 364 364 364 364 365 366 367 368 368 368 366 365 364 363
316 318 320 321 322 323 324 322 323 323 322 318 313 313 314 313 313 314 314 312 316 327 332 328 329 330 328 330 330 330 331 329 331 333 334 338 339 340 344 345 345 348 350 356 361 362 360 360 362 363 363 364 364 364 365 366 367 367 367 365 365 365 363
318 319 321 321 322 323 322 321 323 323 320 320 319 319 318 314 313 314 314 312 317 326 333 331 329 330 328 330 330 329 329 330 331 331 333 337 339 343 345 343 345 347 349 356 361 361 362 361 361 362 363 364 364 365 365 366 366 366 366 364 364 365 365
317 317 317 319 320 321 320 321 324 324 324 324 323 323 322 317 313 314 315 312 316 327 334 330 330 329 328 328 328 328 330 331 330 331 333 338 341 344 344 344 345 345 349 358 364 365 365 362 362 362 363 364 364 364 364 364 365 365 365 363 365 366 365
317 315 315 316 318 320 320 321 322 324 325 323 320 318 317 317 318 318 315 313 318 328 333 331 331 330 328 330 329 329 331 331 330 332 334 339 345 347 346 345 345 347 356 364 366 368 365 362 362 363 363 364 363 364 363 364 365 364 363 363 364 366 365
319 318 320 321 320 319 319 319 321 323 324 324 323 317 314 317 320 318 319 320 320 325 331 333 333 331 330 328 328 329 331 331 331 332 333 339 345 348 348 348 348 351 361 367 367 367 365 361 360 362 363 363 363 364 363 364 364 364 364 363 364 366 366
317 318 320 320 320 318 317 318 319 321 323 324 322 318 318 323 319 316 324 328 322 324 333 335 334 334 331 330 330 332 332 331 333 335 335 335 341 346 349 351 353 355 360 367 367 364 364 362 360 361 362 363 362 362 364 364 363 363 363 362 363 366 365
313 314 315 316 318 318 317 318 319 319 320 322 320 320 323 325 320 318 326 330 325 329 334 336 339 340 336 336 336 335 335 335 338 339 337 334 335 339 343 347 352 355 359 366 367 364 363 363 361 359 361 362 362 363 364 363 364 363 363 363 363 366 366
312 312 313 314 315 315 317 317 318 319 320 321 321 323 325 325 323 325 330 331 331 333 334 339 343 341 338 338 337 335 338 341 342 342 340 336 336 338 340 344 349 352 356 362 366 367 366 364 361 360 361 362 363 362 363 364 362 362 363 363 363 366 367
312 311 312 313 313 314 316 316 318 319 320 321 322 323 325 325 325 327 329 328 330 333 333 337 340 339 338 338 337 336 341 343 344 343 342 343 343 343 343 344 347 351 353 357 364 367 368 364 362 359 360 362 362 362 363 362 362 363 363 364 365 366 368
311 310 311 312 312 313 315 315 318 318 318 319 320 321 324 324 323 325 325 323 328 333 332 336 341 339 337 339 339 340 343 345 347 345 344 345 346 346 346 349 352 355 354 354 359 364 364 363 362 359 360 361 362 362 362 362 362 362 363 366 365 367 368
310 310 310 311 311 312 313 315 318 319 319 320 320 321 324 325 325 324 322 323 329 333 333 337 342 340 339 342 344 343 343 343 343 345 347 348 346 345 347 350 352 356 356 355 356 361 363 362 359 358 359 361 361 362 362 362 362 362 363 365 366 367 368
311 311 311 312 313 313 314 316 318 319 320 320 320 321 322 325 325 324 325 328 332 337 339 340 343 343 343 344 343 341 340 338 338 343 349 352 350 349 350 351 352 355 362 364 363 363 362 362 360 359 357 360 361 362 362 362 362 362 363 365 367 367 369
311 311 312 314 315 314 315 316 318 318 319 320 321 322 322 324 324 325 328 330 332 337 341 340 341 342 342 341 341 339 337 339 341 346 351 353 353 352 354 357 357 359 363 366 367 365 361 358 361 360 357 358 360 361 361 362 362 363 364 365 367 369 369
310 311 312 313 314 314 315 316 317 318 320 322 322 321 322 325 329 332 333 332 333 336 337 337 338 339 339 339 340 339 340 344 347 349 350 352 351 353 354 355 358 361 362 363 366 368 363 358 357 360 359 356 360 362 362 363 363 363 363 365 367 369 369
310 310 311 312 313 313 314 315 317 318 321 326 327 328 329 329 331 333 335 336 336 335 335 336 336 338 339 339 340 341 340 339 341 343 346 348 350 351 354 355 357 360 361 363 365 365 363 358 355 359 360 356 358 361 362 363 364 363 364 366 368 369 369
310 310 311 312 313 314 315 319 323 323 327 330 332 333 336 334 330 332 334 335 335 334 333 334 336 340 341 339 340 339 334 333 336 339 342 345 347 351 354 357 357 358 361 363 363 363 360 357 353 356 360 358 358 362 362 364 365 364 364 366 368 369 370
311 309 310 312 313 315 322 328 326 323 326 328 329 335 338 335 330 331 331 331 332 331 330 333 338 343 345 342 339 332 329 329 333 337 342 344 347 352 355 356 357 358 359 362 362 362 359 354 351 355 359 359 358 362 363 364 364 364 364 366 370 370 370
312 311 311 311 311 317 326 328 324 322 324 326 331 338 338 333 328 328 329 329 329 329 331 334 337 340 341 339 333 327 326 328 331 337 342 342 345 351 354 356 357 358 359 360 362 361 358 353 352 355 359 359 359 362 365 365 364 365 366 367 369 370 370
312 312 311 310 312 320 325 325 323 323 324 328 333 335 333 329 327 327 326 326 326 327 330 332 333 331 329 327 326 324 326 329 329 333 340 343 345 350 353 355 357 358 359 361 362 360 357 354 354 357 359 360 361 362 365 365 365 364 366 367 369 370 370
311 312 312 310 313 321 322 322 322 323 326 331 331 327 325 326 325 324 323 323 324 326 327 328 327 325 322 322 323 324 325 327 327 330 336 340 342 347 352 355 357 359 358 359 362 360 356 355 356 358 359 360 364 364 366 366 366 365 366 368 369 370 371
313 313 312 311 314 319 321 322 323 323 325 327 324 321 323 324 322 322 321 321 322 324 325 325 324 322 322 322 322 322 323 324 325 327 333 338 340 344 350 353 357 360 360 361 361 359 357 357 358 357 359 362 364 365 366 366 365 365 367 368 369 371 370
314 313 313 314 316 318 319 321 323 322 321 321 320 321 323 322 320 321 320 319 321 322 322 323 324 323 322 321 321 321 322 323 323 326 332 337 339 343 348 352 357 360 362 362 360 358 356 357 357 357 360 363 365 365 367 367 365 366 367 368 369 370 370
315 315 316 317 318 318 317 318 320 320 319 318 318 319 319 318 318 319 319 319 320 320 321 322 323 323 322 321 321 322 322 322 323 327 332 336 339 342 346 350 356 360 361 361 361 360 358 357 358 360 360 362 364 367 367 367 365 366 368 369 370 371 370
316 315 316 316 316 317 317 317 318 318 318 318 318 318 318 318 318 318 318 318 319 320 321 322 322 322 322 321 321 322 323 323 324 328 332 336 339 342 345 348 353 359 362 361 363 364 361 358 359 361 361 361 365 367 368 367 366 366 368 369 370 370 370
316 316 317 317 317 316 317 316 317 318 317 317 318 318 318 318 318 317 317 317 318 320 320 321 322 322 322 321 321 322 325 325 325 328 332 335 338 342 344 345 349 355 360 363 365 365 364 361 360 360 360 363 366 367 367 367 365 366 370 370 370 370 369
315 315 317 316 315 315 316 317 318 319 318 317 317 317 316 317 318 317 317 317 318 319 319 320 321 321 321 320 320 322 324 326 326 328 332 335 338 341 342 343 346 351 356 361 363 364 366 366 365 364 362 363 366 367 367 365 365 368 371 370 371 371 370
315 316 316 314 314 316 317 316 317 318 317 316 316 315 316 317 317 317 317 317 317 319 319 319 320 321 321 321 320 321 324 326 327 328 331 334 336 339 341 342 343 346 350 355 357 360 363 364 366 368 367 365 366 366 366 365 366 370 372 372 372 372 371
315 315 314 312 314 316 315 313 314 315 315 316 316 316 316 317 317 318 318 318 318 318 320 319 320 322 322 321 321 321 323 326 328 329 331 332 335 338 341 341 342 343 345 348 350 354 358 361 363 366 367 367 367 367 366 366 366 370 372 372 372 372 371
312 312 311 311 312 313 312 312 313 314 314 315 316 316 317 318 318 318 318 319 319 319 319 320 320 321 322 322 322 322 323 325 327 329 330 331 333 337 339 340 341 341 343 345 347 348 352 357 360 362 364 364 365 366 368 368 367 370 371 371 370 371 371
310 310 310 311 311 312 312 312 312 313 315 317 317 317 317 318 318 318 318 319 320 319 319 320 321 321 321 321 322 323 324 324 325 327 330 330 330 333 336 337 339 340 340 341 344 345 348 353 356 357 358 360 361 363 367 369 370 369 370 370 369 369 370
309 310 310 311 312 312 312 312 312 314 315 316 317 317 318 319 319 319 319 319 320 319 319 319 321 322 322 321 322 324 325 324 323 325 329 329 329 330 332 335 337 338 338 339 340 342 344 347 350 352 354 356 359 361 365 368 370 370 369 369 368 369 370